Flag for Switzerland Weather past 2 weeks in Sarnen, Obwalden, Switzerland

Now
61 °F

Cool.


Feels Like: 61 °F
Forecast: 47 / 70 °F
Wind: 1 mph from North

Location: Giswil

Current Time: Oct 2, 2014 at 3:29:16 PM

Latest Report: Oct 2, 2014 at 2:00 PM


Visibility: N/A

Pressure: 30.32 "Hg

Humidity: 78%

Dew point: 54 °F

Location of SarnenLocation

Historic Weather in Sarnen — Graph

°F

Sarnen temperature yesterday

Maximum temperature yesterday: 64 °F (at 5:00 PM)
Minimum temperature yesterday: 51 °F (at 11:00 PM)
Average temperature yesterday: 58 °F

Past Weeks' High & Low Weather Summary

 TemperatureHumidityPressure
High74 °F (Sep 17, 5:00 PM)100% (Sep 20, 7:00 AM)30.39 "Hg (Sep 20, 7:00 AM)
Low41 °F (Sep 24, 7:00 AM)49% (Sep 21, 2:00 PM)29.81 "Hg (Sep 17, 5:00 PM)
Average57 °F86%30.16 "Hg
* Reported Sep 17 2:00 PM — Oct 2 2:00 PM, Sarnen, Weather by CustomWeather, © 2014

Note: Actual official high and low records may vary slightly from our data, if they occured in-between our weather recording intervals... More about our weather records

Advertising

Sarnen weather history for previous 24 hours

 ConditionsComfort  
Time TempWeatherWind HumidityBarometerVisibility
2:00 PM
Oct 2
61 °FCool.1 mph78%30.32 "HgN/A
1:00 PM61 °FCool.1 mph74%30.33 "HgN/A
12:00 PM58 °FCool.1 mph91%30.35 "HgN/A
11:00 AM55 °FCool.3 mph100%30.37 "HgN/A
10:00 AM54 °FCool.No wind100%30.37 "HgN/A
9:00 AM53 °FCool.No wind100%30.37 "HgN/A
8:00 AM52 °FCool.No wind100%30.37 "HgN/A
7:00 AM51 °FCool.2 mph100%30.37 "HgN/A
6:00 AM52 °FCool.1 mph100%30.37 "HgN/A
5:00 AM50 °FCool.1 mph100%30.37 "HgN/A
4:00 AM50 °FCool.1 mph100%30.37 "HgN/A
3:00 AM54 °FCool.2 mph100%30.37 "HgN/A
2:00 AM54 °FCool.2 mph100%30.37 "HgN/A
1:00 AM54 °FCool.1 mph100%30.37 "HgN/A
12:00 AM53 °FCool.No wind100%30.37 "HgN/A
11:00 PM
Oct 1
51 °FCool.1 mph100%30.39 "HgN/A
10:00 PM53 °FCool.1 mph100%30.37 "HgN/A
9:00 PM55 °FCool.1 mph100%30.36 "HgN/A
8:00 PM56 °FCool.2 mph99%30.33 "HgN/A
7:00 PM58 °FCool.No wind98%30.31 "HgN/A
6:00 PM64 °FMild.1 mph84%30.29 "HgN/A
5:00 PM64 °FMild.1 mph81%30.29 "HgN/A
4:00 PM63 °FMild.2 mph87%30.31 "HgN/A
3:00 PM61 °FCool.No wind94%30.32 "HgN/A
Weather by CustomWeather, © 2014

See weather overviewHow to use our weather pages